{"data":{"norad_id":63691,"epoch":"2026-05-25T04:06:47.847168Z","epoch_age_seconds":70827,"freshness":"FRESH","line1":"1 63691U 25086E   26145.17138712  .00000036  00000+0  49410-4 0  9994","line2":"2 63691  86.5075 321.0176 0001452  79.1313 280.9985 13.24408584 51819","mean_motion":13.24408584,"eccentricity":0.0001452,"inclination_deg":86.5075,"raan_deg":321.0176,"arg_perigee_deg":79.1313,"mean_anomaly_deg":280.9985,"bstar":4.941e-5,"rev_number":5181,"period_min":108.72777611052,"perigee_km":1166.831875663,"apogee_km":1169.0232528125,"semimajor_km":7546.0645642378,"source":"CELESTRAK","updated_at":"2026-05-25T13:38:03.890963Z"}}